TimeEST,TemperatureF,Dew PointF,Humidity,Sea Level PressureIn,VisibilityMPH,Wind Direction,Wind SpeedMPH,Gust SpeedMPH,PrecipitationIn,Events,Conditions,WindDirDegrees,DateUTC
12:52 AM,33.1,21.0,61,29.85,10.0,Calm,Calm,-,N/A,,Overcast,0,2013-02-13 05:52:00
1:52 AM,30.9,21.0,67,29.85,10.0,Variable,5.8,-,N/A,,Mostly Cloudy,0,2013-02-13 06:52:00
2:52 AM,28.9,21.0,72,29.86,10.0,Calm,Calm,-,N/A,,Mostly Cloudy,0,2013-02-13 07:52:00
3:52 AM,30.9,21.9,69,29.87,10.0,West,5.8,-,N/A,,Overcast,260,2013-02-13 08:52:00
4:52 AM,32.0,21.9,66,29.87,10.0,Calm,Calm,-,N/A,,Overcast,0,2013-02-13 09:52:00
5:52 AM,30.9,21.9,69,29.86,10.0,Calm,Calm,-,N/A,,Overcast,0,2013-02-13 10:52:00
6:52 AM,30.9,21.9,69,29.87,10.0,Calm,Calm,-,N/A,,Overcast,0,2013-02-13 11:52:00
7:49 AM,30.2,21.2,69,29.85,10.0,WNW,4.6,-,N/A,,Overcast,300,2013-02-13 12:49:00
7:52 AM,30.9,21.9,69,29.87,10.0,WNW,4.6,-,N/A,,Overcast,290,2013-02-13 12:52:00
8:33 AM,32.0,21.2,64,29.85,10.0,NW,6.9,-,N/A,,Overcast,320,2013-02-13 13:33:00
8:52 AM,33.1,21.9,64,29.87,10.0,NW,9.2,-,N/A,,Overcast,310,2013-02-13 13:52:00
9:52 AM,33.1,21.9,64,29.86,10.0,WNW,6.9,-,N/A,,Overcast,290,2013-02-13 14:52:00
10:52 AM,36.0,21.0,55,29.84,10.0,Variable,4.6,-,N/A,,Mostly Cloudy,0,2013-02-13 15:52:00
11:52 AM,36.0,21.0,55,29.83,10.0,West,10.4,16.1,N/A,,Overcast,260,2013-02-13 16:52:00
12:52 PM,37.9,19.9,48,29.82,10.0,Calm,Calm,-,N/A,,Mostly Cloudy,0,2013-02-13 17:52:00
1:52 PM,37.9,19.9,48,29.80,10.0,WSW,5.8,-,N/A,,Mostly Cloudy,240,2013-02-13 18:52:00
2:52 PM,37.0,19.0,48,29.78,10.0,Calm,Calm,-,N/A,,Mostly Cloudy,0,2013-02-13 19:52:00
3:52 PM,37.9,19.9,48,29.77,10.0,Calm,Calm,-,N/A,,Partly Cloudy,0,2013-02-13 20:52:00
4:52 PM,36.0,19.0,50,29.76,10.0,WNW,3.5,-,N/A,,Clear,300,2013-02-13 21:52:00
5:52 PM,28.9,21.9,75,29.75,10.0,Calm,Calm,-,N/A,,Clear,0,2013-02-13 22:52:00
6:52 PM,27.0,21.0,78,29.75,10.0,Calm,Calm,-,N/A,,Clear,0,2013-02-13 23:52:00
7:52 PM,27.0,21.0,78,29.75,10.0,Calm,Calm,-,N/A,,Clear,0,2013-02-14 00:52:00
8:52 PM,27.0,21.9,81,29.75,10.0,Calm,Calm,-,N/A,,Mostly Cloudy,0,2013-02-14 01:52:00
9:52 PM,28.0,21.9,78,29.74,10.0,Calm,Calm,-,N/A,,Mostly Cloudy,0,2013-02-14 02:52:00
10:52 PM,28.0,21.9,78,29.73,10.0,Calm,Calm,-,N/A,,Overcast,0,2013-02-14 03:52:00
11:52 PM,28.0,23.0,81,29.73,10.0,Calm,Calm,-,N/A,,Overcast,0,2013-02-14 04:52:00